Location: Toronto
(43.6672°N, 79.4170°W)
Time: 17:35:15
(UTC-04:00)

ISS - Visible Passes

Search period start: 21 October 2014 00:00
Search period end: 31 October 2014 00:00
Orbit: 413 x 416 km, 51.6° (Epoch: 21 October)

Date Brightness Start Highest point End Pass type
(mag) Time Alt. Az. Time Alt. Az. Time Alt. Az.
21 Oct -1.7 18:53:16 10° NW 18:56:03 23° NNE 18:58:49 10° ENE visible
21 Oct -1.9 20:29:49 10° NW 20:31:58 36° NW 20:31:58 36° NW visible
22 Oct -2.9 19:40:47 10° NW 19:44:03 47° NNE 19:44:58 36° ENE visible
22 Oct 0.3 21:17:45 10° WNW 21:17:51 11° W 21:17:51 11° W visible
23 Oct -2.3 18:51:45 10° NW 18:54:51 34° NNE 18:57:56 10° E visible
23 Oct -1.9 20:28:24 10° WNW 20:30:55 38° WSW 20:30:55 38° WSW visible
24 Oct -3.2 19:39:11 10° WNW 19:42:32 78° SW 19:44:04 29° SE visible
25 Oct -3.2 18:50:01 10° NW 18:53:20 65° NNE 18:56:39 10° ESE visible
25 Oct -0.8 20:27:23 10° W 20:29:43 18° SW 20:30:14 17° SW visible
26 Oct -1.5 19:37:42 10° WNW 19:40:40 30° SW 19:43:37 10° SSE visible
27 Oct -2.4 18:48:15 10° WNW 18:51:30 51° SW 18:54:44 10° SE visible
28 Oct -0.1 19:37:06 10° WSW 19:38:26 12° SW 19:39:47 10° SSW visible
29 Oct -0.5 18:46:46 10° W 18:49:19 20° SW 18:51:51 10° S visible
